"2016-03-23 00:00:00",1481691,4.964,329.4,2.231,0.249,17.58,106.5217,15.97,16.98,9.88,0,110.8,13.13,16.78,291.4
"2016-03-23 00:00:30",1481692,5.207,325.9,3.744,0.227,17.52,106.5203,15.97,16.99,9.86,0,110.8,13.13,16.77,287.9
"2016-03-23 00:01:00",1481693,5.131,329.8,7.521,0.521,17.5,106.5203,15.97,16.97,9.87,0,110.8,13.13,16.77,291.8
"2016-03-23 00:01:30",1481694,5.233,321.4,2.496,0.282,17.52,106.5203,15.97,16.97,9.97,0,110.8,13.13,16.77,283.4
"2016-03-23 00:02:00",1481695,5.369,321.3,4.649,0.382,17.43,106.5158,15.95,16.98,10.05,0,110.8,13.13,16.76,283.3
"2016-03-23 00:02:30",1481696,4.751,331.6,2.571,0.216,17.41,106.5124,15.95,16.96,10.1,0,110.8,13.13,16.75,293.6
"2016-03-23 00:03:00",1481697,4.709,329.4,2.999,0.227,17.35,106.5096,15.94,16.96,10.1,0,110.8,13.13,16.75,291.4
"2016-03-23 00:03:30",1481698,4.325,330.5,7.552,0.6,17.41,106.4969,15.91,16.95,10.17,0,110.8,13.13,16.71,292.5
"2016-03-23 00:04:00",1481699,3.353,329,9.12,0.689,17.35,106.4693,15.84,16.91,10.35,0,110.8,13.12,16.64,291.0
"2016-03-23 00:04:30",1481700,2.816,331.4,10.27,0.624,17.38,106.4322,15.74,16.85,10.54,0,110.8,13.12,16.55,293.4
"2016-03-23 00:05:00",1481701,3.329,341.2,8.09,0.43,17.38,106.3967,15.65,16.76,10.56,0,110.8,13.12,16.46,303.2
"2016-03-23 00:05:30",1481702,4.221,336.8,9.26,0.417,17.31,106.3609,15.56,16.67,10.19,0,110.8,13.12,16.36,298.8
"2016-03-23 00:06:00",1481703,4.549,327.2,8.79,0.251,17.43,106.3513,15.53,16.61,10.4,0,110.8,13.12,16.34,289.2
"2016-03-23 00:06:30",1481704,4.546,338.8,11.46,0.42,17.54,106.3497,15.53,16.58,10.57,0,110.8,13.12,16.33,300.8
"2016-03-23 00:07:00",1481705,3.075,352.2,4.446,0.639,17.61,106.333,15.49,16.56,10.49,0,110.8,13.12,16.29,314.2
"2016-03-23 00:07:30",1481706,3.399,339.5,8.78,0.52,17.53,106.3215,15.46,16.53,11.06,0,110.8,13.12,16.26,301.5
"2016-03-23 00:08:00",1481707,3.47,338.2,5.817,0.371,17.57,106.3209,15.45,16.51,11.02,0,110.8,13.12,16.26,300.2
"2016-03-23 00:08:30",1481708,3.382,344.3,3.749,0.394,17.49,106.3254,15.47,16.5,11.33,0,110.8,13.12,16.27,306.3
"2016-03-23 00:09:00",1481709,3.101,326.2,3.518,0.306,17.59,106.3299,15.48,16.5,11.55,0,110.8,13.12,16.28,288.2
"2016-03-23 00:09:30",1481710,4.335,332.5,7.861,0.359,17.66,106.3325,15.48,16.5,11.51,0,110.8,13.12,16.29,294.5
"2016-03-23 00:10:00",1481711,4.612,340.2,2.927,0.312,17.68,106.3319,15.48,16.49,10.88,0,110.8,13.13,16.29,302.2
"2016-03-23 00:10:30",1481712,3.977,355,6.404,0.777,17.65,106.3322,15.48,16.51,11.09,0,110.8,13.13,16.29,317.0
"2016-03-23 00:11:00",1481713,3.489,357.6,11.32,1.231,17.54,106.3274,15.47,16.51,11.43,0,110.8,13.13,16.28,319.6
"2016-03-23 00:11:30",1481714,1.073,5.957,10.31,0.497,17.64,106.3184,15.45,16.51,11.59,0,110.8,13.13,16.25,328.0
"2016-03-23 00:12:00",1481715,1.578,4.058,12.96,1.568,17.68,106.3176,15.45,16.48,11.54,0,110.8,13.13,16.25,326.1
"2016-03-23 00:12:30",1481716,4.391,353.6,5.98,1.124,17.7,106.3139,15.44,16.48,12.26,0,110.8,13.13,16.24,315.6
"2016-03-23 00:13:00",1481717,4.586,351.1,8.42,1.171,17.72,106.3026,15.41,16.46,12.29,0,110.8,13.13,16.21,313.1
"2016-03-23 00:13:30",1481718,3.731,352.9,12.46,1.361,17.73,106.2852,15.36,16.45,12.37,0,110.8,13.13,16.17,314.9
"2016-03-23 00:14:00",1481719,3.87,357,5.238,1.098,17.6,106.2838,15.36,16.43,12.05,0,110.8,13.13,16.17,319.0
"2016-03-23 00:14:30",1481720,3.826,356.6,2.571,0.666,17.66,106.2767,15.34,16.41,11.61,0,110.8,13.13,16.15,318.6
"2016-03-23 00:15:00",1481721,3.74,357.9,2.733,0.614,17.68,106.2522,15.28,16.4,11.38,0,110.8,13.13,16.08,319.9
"2016-03-23 00:15:30",1481722,5.128,354.4,5.777,1.264,17.67,106.2458,15.26,16.36,11.25,0,110.8,13.13,16.07,316.4
"2016-03-23 00:16:00",1481723,5.833,348.9,2.502,0.189,17.62,106.2235,15.21,16.33,11.23,0,110.8,13.14,16.01,310.9
"2016-03-23 00:16:30",1481724,5.661,346.1,2.497,0.22,17.61,106.2162,15.19,16.29,11.25,0,110.8,13.14,15.99,308.1
"2016-03-23 00:17:00",1481725,3.283,355.3,6.543,1.13,17.72,106.2123,15.18,16.28,11.2,0,110.8,13.14,15.98,317.3
"2016-03-23 00:17:30",1481726,3.791,356.7,3.218,0.518,17.74,106.1907,15.12,16.26,11.19,0,110.8,13.14,15.93,318.7
"2016-03-23 00:18:00",1481727,3.201,1.418,3.128,0.426,17.69,106.1841,15.1,16.23,11.06,0,110.8,13.14,15.91,323.4
"2016-03-23 00:18:30",1481728,2.87,0.646,3.398,0.516,17.74,106.1662,15.06,16.19,11.05,0,110.7,13.14,15.86,322.6
"2016-03-23 00:19:00",1481729,3.202,0.371,3.449,0.536,17.69,106.1561,15.03,16.17,11.01,0,110.7,13.14,15.84,322.4
"2016-03-23 00:19:30",1481730,2.472,4.18,4.594,0.516,17.66,106.1345,14.98,16.12,10.98,0,110.7,13.15,15.78,326.2
"2016-03-23 00:20:00",1481731,4.718,352.8,2.497,0.498,17.72,106.1241,14.95,16.11,11.06,0,110.7,13.15,15.75,314.8
"2016-03-23 00:20:30",1481732,2.484,3.071,6.109,0.992,17.7,106.12,14.94,16.07,11.09,0,110.7,13.14,15.74,325.1
"2016-03-23 00:21:00",1481733,4.781,351,8.39,1.173,17.73,106.1005,14.89,16.04,11.1,0,110.7,13.14,15.69,313.0
"2016-03-23 00:21:30",1481734,3.582,356.5,6.861,1.279,17.74,106.1026,14.9,16.01,11.14,0,110.7,13.14,15.70,318.5
"2016-03-23 00:22:00",1481735,3.66,357.4,2.446,0.529,17.78,106.0997,14.89,15.98,11.16,0,110.7,13.14,15.69,319.4
"2016-03-23 00:22:30",1481736,2.889,0.118,2.571,0.499,17.74,106.089,14.86,15.96,11.16,0,110.7,13.14,15.66,322.1
"2016-03-23 00:23:00",1481737,2.814,0.303,3.175,0.317,17.73,106.0798,14.84,15.94,11.17,0,110.7,13.14,15.64,322.3
"2016-03-23 00:23:30",1481738,4.315,353.8,3.37,0.846,17.71,106.0735,14.82,15.91,11.13,0,110.7,13.14,15.62,315.8
"2016-03-23 00:24:00",1481739,3.429,358.2,3.8,0.705,17.66,106.0609,14.79,15.88,11.13,0,110.7,13.14,15.59,320.2
"2016-03-23 00:24:30",1481740,3.707,356.4,4.096,0.855,17.64,106.0493,14.76,15.86,11.11,0,110.7,13.14,15.56,318.4
"2016-03-23 00:25:00",1481741,3.733,356.6,3.207,0.664,17.64,106.0493,14.76,15.85,11.13,0,110.7,13.14,15.56,318.6
"2016-03-23 00:25:30",1481742,3.696,354.8,3.121,0.757,17.6,106.0448,14.75,15.82,11.14,0,110.7,13.14,15.55,316.8
"2016-03-23 00:26:00",1481743,4.359,354.5,2.76,0.572,17.58,106.035,14.72,15.79,11.16,0,110.7,13.14,15.53,316.5
"2016-03-23 00:26:30",1481744,3.429,356.9,1.913,0.602,17.58,106.0277,14.7,15.78,11.15,0,110.7,13.15,15.51,318.9
"2016-03-23 00:27:00",1481745,3.659,356.8,2.614,0.776,17.54,106.0237,14.69,15.76,11.08,0,110.7,13.15,15.50,318.8
"2016-03-23 00:27:30",1481746,4.602,354.2,2.841,0.581,17.55,106.0161,14.67,15.73,11.01,0,110.7,13.15,15.48,316.2
"2016-03-23 00:28:00",1481747,4.402,355.8,2.394,0.609,17.59,106.0155,14.67,15.74,11.02,0,110.7,13.15,15.48,317.8
"2016-03-23 00:28:30",1481748,4.347,355.7,2.858,0.683,17.57,106.0155,14.67,15.73,11.04,0,110.7,13.15,15.48,317.7
"2016-03-23 00:29:00",1481749,2.882,1.327,2.864,0.576,17.59,106.0155,14.67,15.72,11.08,0,110.7,13.15,15.48,323.3
"2016-03-23 00:29:30",1481750,3.767,358.4,2.401,0.382,17.53,106.0122,14.66,15.71,11.14,0,110.7,13.15,15.47,320.4
"2016-03-23 00:30:00",1481751,4.492,355.4,3.56,0.858,17.58,106.0079,14.65,15.7,11.14,0,110.7,13.15,15.46,317.4
"2016-03-23 00:30:30",1481752,5.764,347.8,1.532,0.319,17.62,106.0026,14.64,15.7,11.13,0,110.7,13.15,15.44,309.8
"2016-03-23 00:31:00",1481753,4.342,354.1,3.695,0.843,17.54,105.9989,14.63,15.67,11.16,0,110.6,13.15,15.43,316.1
"2016-03-23 00:31:30",1481754,3.989,356.3,2.495,0.777,17.47,105.9927,14.61,15.68,11.18,0,110.6,13.15,15.42,318.3
"2016-03-23 00:32:00",1481755,3.816,357.8,2.717,0.527,17.42,105.9885,14.6,15.66,11.23,0,110.6,13.15,15.41,319.8
"2016-03-23 00:32:30",1481756,5.249,353,2.185,0.5,17.44,105.9837,14.59,15.67,11.23,0,110.6,13.16,15.39,315.0
"2016-03-23 00:33:00",1481757,5.248,351.6,2.951,0.651,17.43,105.9838,14.59,15.67,11.28,0,110.6,13.16,15.39,313.6
"2016-03-23 00:33:30",1481758,4.819,351.7,1.372,0.246,17.39,105.985,14.59,15.65,11.28,0,110.6,13.16,15.40,313.7
"2016-03-23 00:34:00",1481759,4.823,352.9,2.74,0.548,17.38,105.9868,14.6,15.66,11.33,0,110.6,13.16,15.40,314.9
"2016-03-23 00:34:30",1481760,5.146,353.1,4.192,0.952,17.34,105.9895,14.61,15.64,11.3,0,110.6,13.16,15.41,315.1
"2016-03-23 00:35:00",1481761,3.231,359.6,2.75,0.357,17.35,105.9904,14.61,15.65,11.27,0,110.6,13.16,15.41,321.6
"2016-03-23 00:35:30",1481762,4.741,353.4,1.641,0.434,17.3,105.991,14.61,15.63,11.26,0,110.6,13.16,15.41,315.4
"2016-03-23 00:36:00",1481763,4.103,355.7,3.692,0.82,17.3,105.9931,14.62,15.63,11.27,0,110.6,13.16,15.42,317.7
"2016-03-23 00:36:30",1481764,3.012,4.783,5.521,0.675,17.16,105.9952,14.62,15.63,11.45,0,110.6,13.16,15.42,326.8
"2016-03-23 00:37:00",1481765,2.854,1.915,4.771,0.504,17.21,105.9973,14.63,15.64,11.42,0,110.6,13.16,15.43,323.9
"2016-03-23 00:37:30",1481766,3.335,359,3.885,0.592,17.18,105.9988,14.63,15.64,11.48,0,110.6,13.16,15.43,321.0
"2016-03-23 00:38:00",1481767,3.026,2.471,3.824,0.406,17.17,106,14.63,15.63,11.51,0,110.6,13.16,15.44,324.5
"2016-03-23 00:38:30",1481768,3.604,359.3,3.561,0.596,17.19,106.0012,14.64,15.63,11.36,0,110.6,13.15,15.44,321.3
"2016-03-23 00:39:00",1481769,2.469,3.513,2.673,0.31,17.22,106.0006,14.63,15.64,11.29,0,110.6,13.15,15.44,325.5
"2016-03-23 00:39:30",1481770,3.996,356,2.099,0.498,17.24,106.0035,14.64,15.63,11.26,0,110.6,13.15,15.44,318.0
"2016-03-23 00:40:00",1481771,3.742,357.2,2.412,0.487,17.28,106.005,14.65,15.64,11.24,0,110.6,13.15,15.45,319.2
"2016-03-23 00:40:30",1481772,2.48,8.06,6.129,0.634,17.28,106.0086,14.65,15.64,11.25,0,110.6,13.15,15.46,330.1
"2016-03-23 00:41:00",1481773,2.935,1.541,3.609,0.486,17.32,106.0131,14.67,15.64,11.22,0,110.6,13.15,15.47,323.5
"2016-03-23 00:41:30",1481774,2.563,4.927,2.656,0.289,17.34,106.0161,14.67,15.65,11.17,0,110.6,13.15,15.48,326.9
"2016-03-23 00:42:00",1481775,2.947,2.026,3.073,0.27,17.4,106.0164,14.67,15.64,11.1,0,110.6,13.15,15.48,324.0
"2016-03-23 00:42:30",1481776,2.783,1.435,2.057,0.254,17.41,106.017,14.68,15.64,11.11,0,110.6,13.15,15.48,323.4
"2016-03-23 00:43:00",1481777,2.445,3.317,3.181,0.224,17.44,106.017,14.68,15.64,11.09,0,110.6,13.15,15.48,325.3
"2016-03-23 00:43:30",1481778,3.151,1.024,3.194,0.614,17.53,106.017,14.68,15.64,11.06,0,110.6,13.15,15.48,323.0
"2016-03-23 00:44:00",1481779,2.436,6.312,3.299,0.238,17.48,106.0116,14.66,15.65,11.03,0,110.6,13.16,15.47,328.3
"2016-03-23 00:44:30",1481780,2.287,9.56,3.33,0.227,17.51,106.01,14.66,15.64,11.02,0,110.6,13.16,15.46,331.6
"2016-03-23 00:45:00",1481781,2.797,7.21,3.047,0.337,17.55,106.0035,14.64,15.63,10.95,0,110.6,13.16,15.44,329.2
"2016-03-23 00:45:30",1481782,3.271,1.841,8.86,1.02,17.63,105.9987,14.63,15.62,10.84,0,110.6,13.16,15.43,323.8
"2016-03-23 00:46:00",1481783,4.677,350.9,4.81,0.527,17.63,105.9877,14.6,15.62,10.75,0,110.6,13.16,15.40,312.9
"2016-03-23 00:46:30",1481784,2.383,4.282,7.159,0.843,17.67,105.9838,14.59,15.61,10.71,0,110.6,13.16,15.39,326.3
"2016-03-23 00:47:00",1481785,3.361,359,4.41,0.593,17.63,105.9838,14.59,15.62,10.76,0,110.6,13.16,15.39,321.0
"2016-03-23 00:47:30",1481786,4.197,354.6,2.631,0.746,17.68,105.9821,14.59,15.59,10.78,0,110.6,13.16,15.39,316.6
"2016-03-23 00:48:00",1481787,5.365,350.2,2.639,0.417,17.63,105.9753,14.57,15.59,10.83,0,110.6,13.16,15.37,312.2
"2016-03-23 00:48:30",1481788,4.514,352.9,4.841,0.52,17.73,105.9669,14.55,15.57,10.72,0,110.6,13.16,15.35,314.9
"2016-03-23 00:49:00",1481789,3.686,359.1,4.94,0.9,17.72,105.9508,14.51,15.57,10.55,0,110.6,13.16,15.31,321.1
"2016-03-23 00:49:30",1481790,3.722,355.7,6.358,0.982,17.65,105.95,14.5,15.56,10.54,0,110.6,13.16,15.31,317.7
"2016-03-23 00:50:00",1481791,3.004,3.849,5.358,0.548,17.62,105.95,14.5,15.54,10.64,0,110.6,13.16,15.31,325.8
"2016-03-23 00:50:30",1481792,2.417,9.06,3.449,0.328,17.57,105.9477,14.5,15.54,10.85,0,110.6,13.16,15.30,331.1
"2016-03-23 00:51:00",1481793,3.145,7.669,3.783,0.417,17.64,105.9407,14.48,15.52,10.84,0,110.6,13.17,15.28,329.7
"2016-03-23 00:51:30",1481794,2.214,1.266,4.168,0.492,17.63,105.9235,14.44,15.52,10.86,0,110.6,13.16,15.24,323.3
"2016-03-23 00:52:00",1481795,3.004,357.6,4.024,0.733,17.68,105.9178,14.42,15.49,10.75,0,110.6,13.17,15.22,319.6
"2016-03-23 00:52:30",1481796,3.056,357.4,4.303,0.91,17.72,105.9162,14.42,15.49,10.74,0,110.6,13.17,15.22,319.4
"2016-03-23 00:53:00",1481797,4.811,350.2,1.393,0.245,17.73,105.9162,14.42,15.46,10.65,0,110.6,13.17,15.22,312.2
"2016-03-23 00:53:30",1481798,3.997,352.6,3.386,0.448,17.75,105.9157,14.42,15.47,10.56,0,110.6,13.17,15.22,314.6
"2016-03-23 00:54:00",1481799,4.295,354,3.525,0.652,17.73,105.9089,14.4,15.45,10.55,0,110.6,13.17,15.20,316.0
"2016-03-23 00:54:30",1481800,4.832,0.008,11.1,0.999,19.31,105.8966,14.37,15.54,10.68,0,110.6,13.12,15.17,322.0
"2016-03-23 00:55:00",1481801,4.136,6.101,10.99,1.318,18.66,105.8909,14.35,15.54,10.92,0,110.6,13.12,15.16,328.1
"2016-03-23 00:55:30",1481802,4.135,358.9,7.924,1.588,18.24,105.8904,14.35,15.53,11.34,0,110.6,13.12,15.15,320.9
"2016-03-23 00:56:00",1481803,3.648,3.162,7.808,1.407,18.28,105.8916,14.36,15.6,11.45,0,110.6,13.12,15.16,325.2
"2016-03-23 00:56:30",1481804,5.115,357.1,5.031,0.919,16.85,105.889,14.35,15.45,11.38,0,110.6,13.12,15.15,319.1
"2016-03-23 00:57:00",1481805,6.969,360,7.65,1.652,18.77,105.8786,14.32,15.58,11.56,0,110.6,13.11,15.12,322.0
"2016-03-23 00:57:30",1481806,5.79,355.2,5.845,1.392,16.95,105.8691,14.3,15.45,11.42,0,110.6,13.11,15.10,317.2
"2016-03-23 00:58:00",1481807,5.006,351.2,3.031,0.541,16.45,105.8626,14.28,15.36,11.25,0,110.6,13.16,15.08,313.2
"2016-03-23 00:58:30",1481808,5.407,349.8,2.879,0.309,16.63,105.8649,14.29,15.34,11.2,0,110.6,13.16,15.09,311.8
"2016-03-23 00:59:00",1481809,5.565,339.3,2.112,0.149,16.99,105.8707,14.3,15.32,11.09,0,110.6,13.16,15.10,301.3
"2016-03-23 00:59:30",1481810,5.117,343.8,3.789,0.228,17.12,105.8658,14.29,15.32,10.99,0,110.6,13.16,15.09,305.8
"2016-03-23 01:00:00",1481811,4.87,348.3,2.823,0.292,17.09,105.8558,14.26,15.3,11.08,0,110.6,13.16,15.07,310.3
"2016-03-23 01:00:30",1481812,4.737,348,2.06,0.172,17.32,105.8466,14.24,15.29,11.21,0,110.6,13.17,15.04,310.0
"2016-03-23 01:01:00",1481813,4.757,345.8,2.352,0.177,17.28,105.846,14.24,15.27,11.16,0,110.6,13.17,15.04,307.8
"2016-03-23 01:01:30",1481814,5.418,354.4,8.49,1.238,18.79,105.8472,14.24,15.37,11.33,0,110.6,13.13,15.04,316.4
"2016-03-23 01:02:00",1481815,6.105,353.5,7.34,1.573,19.53,105.8472,14.24,15.46,11.45,0,110.6,13.13,15.04,315.5
"2016-03-23 01:02:30",1481816,5.005,345.9,2.551,0.185,16.95,105.8426,14.23,15.26,11.17,0,110.6,13.18,15.03,307.9
"2016-03-23 01:03:00",1481817,5.124,345.4,4.258,0.768,17.41,105.8345,14.21,15.29,11.23,0,110.5,13.13,15.01,307.4
"2016-03-23 01:03:30",1481818,5.688,346.9,7.309,1.504,18.73,105.8291,14.2,15.32,11.21,0,110.6,13.13,15.00,308.9
"2016-03-23 01:04:00",1481819,5.309,342,6.511,1.306,18.2,105.8181,14.17,15.31,11.2,0,110.6,13.13,14.97,304.0
"2016-03-23 01:04:30",1481820,4.132,336.4,1.895,0.07,16.63,105.8167,14.16,15.21,11.05,0,110.6,13.18,14.96,298.4
"2016-03-23 01:05:00",1481821,4.089,335.8,2.193,0.232,16.67,105.8167,14.16,15.19,11,0,110.6,13.18,14.96,297.8
"2016-03-23 01:05:30",1481822,4.305,333.4,1.727,0.162,16.66,105.8167,14.16,15.17,11.13,0,110.6,13.18,14.96,295.4
"2016-03-23 01:06:00",1481823,4.16,329.4,3.088,0.094,17.09,105.8108,14.15,15.16,11.03,0,110.5,13.18,14.95,291.4
"2016-03-23 01:06:30",1481824,3.774,337,3.294,0.211,17.04,105.8071,14.14,15.17,10.83,0,110.5,13.18,14.94,299.0
"2016-03-23 01:07:00",1481825,4.544,339.7,7.505,1.408,19.68,105.7942,14.11,15.38,11.13,0,110.5,13.13,14.91,301.7
"2016-03-23 01:07:30",1481826,3.272,349.5,6.992,1.085,17.95,105.7843,14.08,15.21,10.95,0,110.5,13.13,14.88,311.5
"2016-03-23 01:08:00",1481827,3.677,351.6,3.407,0.622,17.22,105.7829,14.08,15.13,10.79,0,110.5,13.18,14.88,313.6
"2016-03-23 01:08:30",1481828,3.714,342.7,14.53,0.781,17.22,105.7829,14.08,15.13,10.61,0,110.5,13.18,14.88,304.7
"2016-03-23 01:09:00",1481829,3.636,321.6,4.228,0.317,17.24,105.7829,14.08,15.12,10.67,0,110.5,13.18,14.88,283.6
"2016-03-23 01:09:30",1481830,4.194,338.2,13.14,1.358,19.06,105.7829,14.08,15.23,10.79,0,110.5,13.13,14.88,300.2
"2016-03-23 01:10:00",1481831,4.742,330.6,8.38,1.577,18.59,105.7806,14.07,15.22,10.6,0,110.5,13.13,14.87,292.6
"2016-03-23 01:10:30",1481832,3.19,330.6,3.478,0.306,16.91,105.7758,14.06,15.08,10.43,0,110.5,13.18,14.86,292.6
"2016-03-23 01:11:00",1481833,2.553,329.7,6.108,0.179,16.58,105.7733,14.05,15.08,10.47,0,110.5,13.18,14.85,291.7
"2016-03-23 01:11:30",1481834,2.841,334.1,8.57,0.638,16.7,105.7649,14.03,15.06,10.52,0,110.5,13.18,14.83,296.1
"2016-03-23 01:12:00",1481835,3.827,330.2,3.817,0.5,16.7,105.7533,14,15.07,10.51,0,110.5,13.18,14.80,292.2
"2016-03-23 01:12:30",1481836,4.217,332.5,8.75,1.278,18.39,105.7508,13.99,15.17,10.69,0,110.5,13.13,14.80,294.5
"2016-03-23 01:13:00",1481837,4.714,329.1,7.446,1.329,18.69,105.7517,14,15.19,10.59,0,110.5,13.13,14.80,291.1
"2016-03-23 01:13:30",1481838,3.994,333.2,5.495,0.397,17.28,105.7532,14,15.09,10.38,0,110.5,13.18,14.80,295.2
"2016-03-23 01:14:00",1481839,3.386,331.5,2.226,0.158,16.83,105.7559,14.01,15.05,10.36,0,110.5,13.17,14.81,293.5
"2016-03-23 01:14:30",1481840,3.759,339.7,3.083,0.255,16.82,105.7559,14.01,15.04,10.42,0,110.5,13.17,14.81,301.7
"2016-03-23 01:15:00",1481841,3.65,347,3.654,0.398,16.99,105.7569,14.01,15.03,10.45,0,110.5,13.17,14.81,309.0
"2016-03-23 01:15:30",1481842,3.084,351.5,4.973,0.54,17.05,105.7513,14,15.02,10.53,0,110.5,13.18,14.80,313.5
"2016-03-23 01:16:00",1481843,3.212,343.3,7.06,0.467,17.15,105.7515,14,15,10.58,0,110.5,13.18,14.80,305.3
"2016-03-23 01:16:30",1481844,3.495,352.7,3.469,0.44,17.25,105.7462,13.98,15.01,10.64,0,110.5,13.17,14.78,314.7
"2016-03-23 01:17:00",1481845,4.365,345,5.99,0.881,18.25,105.7394,13.97,15.1,10.74,0,110.5,13.13,14.77,307.0
"2016-03-23 01:17:30",1481846,4.818,352.6,11.69,1.322,20.11,105.7382,13.96,15.14,10.74,0,110.5,13.13,14.76,314.6
"2016-03-23 01:18:00",1481847,4.448,352.5,9.84,1.256,18.73,105.743,13.97,15.11,10.73,0,110.5,13.13,14.78,314.5
"2016-03-23 01:18:30",1481848,3.4,359.9,6.535,1.822,18.26,105.7436,13.98,15.07,10.81,0,110.5,13.13,14.78,321.9
"2016-03-23 01:19:00",1481849,3.141,352.1,5.783,0.769,16.48,105.7468,13.98,14.99,10.96,0,110.5,13.18,14.79,314.1
"2016-03-23 01:19:30",1481850,3.877,344.5,1.743,0.169,16.39,105.748,13.99,14.98,10.87,0,110.5,13.18,14.79,306.5
"2016-03-23 01:20:00",1481851,3.972,345.3,2.484,0.276,16.51,105.7501,13.99,14.98,10.81,0,110.5,13.18,14.79,307.3
"2016-03-23 01:20:30",1481852,2.869,353.1,6.447,0.916,16.63,105.7487,13.99,14.96,10.85,0,110.5,13.18,14.79,315.1
"2016-03-23 01:21:00",1481853,3.513,3.353,8.67,1.455,19.19,105.7428,13.97,15.16,11.11,0,110.5,13.14,14.77,325.4
"2016-03-23 01:21:30",1481854,3.622,359.1,7.006,1.232,18.21,105.7369,13.96,15.07,11.04,0,110.5,13.14,14.76,321.1
"2016-03-23 01:22:00",1481855,3.16,353.5,3.101,0.514,16.63,105.7242,13.93,14.94,10.91,0,110.5,13.19,14.73,315.5
"2016-03-23 01:22:30",1481856,2.244,359.7,4.167,0.508,16.58,105.7175,13.91,14.94,10.86,0,110.5,13.19,14.71,321.7
"2016-03-23 01:23:00",1481857,1.737,1.532,3.182,0.405,16.65,105.7172,13.91,14.94,10.82,0,110.5,13.18,14.71,323.5
"2016-03-23 01:23:30",1481858,2.528,358.1,6.73,0.844,16.73,105.7172,13.91,14.92,10.87,0,110.5,13.18,14.71,320.1
"2016-03-23 01:24:00",1481859,3.83,343.8,5.042,0.312,16.93,105.7172,13.91,14.91,10.83,0,110.5,13.19,14.71,305.8
"2016-03-23 01:24:30",1481860,3.308,350,3.358,0.341,17.11,105.7172,13.91,14.91,10.79,0,110.5,13.19,14.71,312.0
"2016-03-23 01:25:00",1481861,3.968,348.7,1.847,0.244,17.27,105.7172,13.91,14.91,10.78,0,110.5,13.19,14.71,310.7
"2016-03-23 01:25:30",1481862,3.782,348.6,2.458,0.222,17.31,105.7163,13.91,14.91,10.74,0,110.5,13.19,14.71,310.6
"2016-03-23 01:26:00",1481863,3.917,4.422,8.33,1.632,19.79,105.7132,13.9,15.1,11.06,0,110.5,13.14,14.70,326.4
"2016-03-23 01:26:30",1481864,3.88,349.6,5.98,0.339,17.24,105.709,13.89,14.89,10.93,0,110.5,13.14,14.69,311.6
"2016-03-23 01:27:00",1481865,5.171,357.3,7.283,1.456,19.02,105.7042,13.88,15,10.97,0,110.5,13.14,14.68,319.3
"2016-03-23 01:27:30",1481866,4.236,353.2,8.13,1.593,17.98,105.6963,13.86,15,10.94,0,110.5,13.14,14.66,315.2
"2016-03-23 01:28:00",1481867,3.243,352,3.183,0.397,16.39,105.6873,13.83,14.87,10.85,0,110.5,13.19,14.63,314.0
"2016-03-23 01:28:30",1481868,3.494,352.8,3.317,0.592,16.47,105.6839,13.82,14.87,11.07,0,110.5,13.19,14.62,314.8
"2016-03-23 01:29:00",1481869,3.996,358.2,7.622,1.17,18.18,105.6833,13.82,14.98,11.19,0,110.5,13.14,14.62,320.2
"2016-03-23 01:29:30",1481870,4.542,356.8,5.793,1.346,18.34,105.6833,13.82,15.02,11.24,0,110.5,13.14,14.62,318.8
"2016-03-23 01:30:00",1481871,4.819,350.9,1.724,0.458,16.5,105.6833,13.82,14.84,11.25,0,110.5,13.18,14.62,312.9
"2016-03-23 01:30:30",1481872,4.499,348.5,4.347,0.483,16.54,105.6833,13.82,14.86,11.24,0,110.5,13.18,14.62,310.5
"2016-03-23 01:31:00",1481873,3.74,356.9,3.209,0.7,16.53,105.6833,13.82,14.84,11.34,0,110.5,13.18,14.62,318.9
"2016-03-23 01:31:30",1481874,4.516,355.1,3.181,0.781,16.68,105.6833,13.82,14.85,11.39,0,110.5,13.18,14.62,317.1
"2016-03-23 01:32:00",1481875,3.657,357.4,4.265,0.933,16.84,105.6833,13.82,14.83,11.39,0,110.5,13.18,14.62,319.4
"2016-03-23 01:32:30",1481876,4.977,3.371,7.997,1.496,19.47,105.6788,13.81,15.01,11.5,0,110.5,13.13,14.61,325.4
"2016-03-23 01:33:00",1481877,4.257,355.6,8.65,0.862,17.12,105.6752,13.8,14.83,11.25,0,110.5,13.14,14.60,317.6
"2016-03-23 01:33:30",1481878,3.958,351.7,2.208,0.459,16.47,105.674,13.8,14.81,11.18,0,110.5,13.18,14.60,313.7
"2016-03-23 01:34:00",1481879,4.426,349.7,2.104,0.272,16.43,105.669,13.79,14.81,11.15,0,110.5,13.18,14.59,311.7
"2016-03-23 01:34:30",1481880,4.486,351,3.365,0.766,16.52,105.6636,13.77,14.81,11.15,0,110.5,13.19,14.57,313.0
"2016-03-23 01:35:00",1481881,5.862,350.8,7.602,1.255,18.2,105.6657,13.78,14.92,11.28,0,110.5,13.15,14.58,312.8
"2016-03-23 01:35:30",1481882,5.437,352.3,7.048,1.462,18.61,105.6662,13.78,14.98,11.33,0,110.5,13.15,14.58,314.3
"2016-03-23 01:36:00",1481883,6.338,354.5,8.66,1.351,19.39,105.6617,13.77,14.96,11.32,0,110.5,13.15,14.57,316.5
"2016-03-23 01:36:30",1481884,6.914,353.2,7.336,1.423,18.5,105.6535,13.75,14.9,11.52,0,110.5,13.15,14.55,315.2
"2016-03-23 01:37:00",1481885,6.242,345.3,1.151,0.206,16.58,105.6551,13.75,14.79,11.49,0,110.5,13.19,14.55,307.3
"2016-03-23 01:37:30",1481886,6.048,341.6,2.219,0.187,16.62,105.6555,13.75,14.79,11.43,0,110.5,13.19,14.55,303.6
"2016-03-23 01:38:00",1481887,6.135,341.4,3.323,0.64,16.74,105.6555,13.75,14.78,11.41,0,110.5,13.15,14.55,303.4
"2016-03-23 01:38:30",1481888,7.488,350,7.488,1.277,19.34,105.657,13.75,15,11.69,0,110.5,13.15,14.55,312.0
"2016-03-23 01:39:00",1481889,6.359,344.6,3.922,0.898,16.77,105.6573,13.76,14.78,11.51,0,110.5,13.15,14.56,306.6
"2016-03-23 01:39:30",1481890,5.96,346.2,1.558,0.109,16.13,105.6573,13.76,14.76,11.58,0,110.5,13.2,14.56,308.2
"2016-03-23 01:40:00",1481891,5.749,347,1.818,0.188,16.14,105.6576,13.76,14.77,11.58,0,110.5,13.2,14.56,309.0
"2016-03-23 01:40:30",1481892,5.666,347.4,1.081,0.089,16.37,105.6574,13.76,14.76,11.56,0,110.5,13.2,14.56,309.4
"2016-03-23 01:41:00",1481893,5.497,347.8,0.933,0.129,16.54,105.6535,13.75,14.77,11.59,0,110.5,13.2,14.55,309.8
"2016-03-23 01:41:30",1481894,6.153,351.6,6.402,1.341,18.44,105.6513,13.74,14.91,11.8,0,110.5,13.15,14.54,313.6
"2016-03-23 01:42:00",1481895,6.975,355.2,7.583,1.388,20.08,105.6466,13.73,15,11.83,0,110.5,13.15,14.53,317.2
"2016-03-23 01:42:30",1481896,5.75,350.3,6.764,1.324,17.99,105.6377,13.71,14.8,11.69,0,110.5,13.15,14.50,312.3
"2016-03-23 01:43:00",1481897,5.042,346.4,1.559,0.112,16.3,105.6305,13.69,14.73,11.69,0,110.5,13.2,14.49,308.4
"2016-03-23 01:43:30",1481898,5.295,355.8,5.345,2.068,17.57,105.6306,13.69,14.84,11.91,0,110.5,13.15,14.49,317.8
"2016-03-23 01:44:00",1481899,5.602,359.3,7.276,1.648,18.56,105.6336,13.69,14.89,11.97,0,110.5,13.15,14.49,321.3
"2016-03-23 01:44:30",1481900,4.475,353.8,2.019,0.49,15.85,105.6348,13.7,14.72,11.84,0,110.4,13.2,14.50,315.8
"2016-03-23 01:45:00",1481901,5.064,350.4,2.77,0.433,15.84,105.6345,13.7,14.71,11.84,0,110.5,13.2,14.50,312.4
"2016-03-23 01:45:30",1481902,5.394,347.1,2.219,0.179,16.03,105.6291,13.68,14.69,11.81,0,110.4,13.2,14.48,309.1
"2016-03-23 01:46:00",1481903,5.68,347.7,1.505,0.127,16.21,105.617,13.65,14.69,11.8,0,110.4,13.2,14.45,309.7
"2016-03-23 01:46:30",1481904,5.674,346.3,1.474,0.141,16.47,105.6174,13.65,14.67,11.83,0,110.4,13.2,14.45,308.3